Date,TemperatureHighF,TemperatureAvgF,TemperatureLowF,DewpointHighF,DewpointAvgF,DewpointLowF,HumidityHigh,HumidityAvg,HumidityLow,PressureMaxIn,PressureMinIn,WindSpeedMaxMPH,WindSpeedAvgMPH,GustSpeedMaxMPH,PrecipitationSumIn
2013-4-1,73.8,62.9,54.6,56.5,47.4,36.8,96,62,28,30.01,29.89,14,2,15,0.03
2013-4-2,64.8,52.6,37.2,41.7,36.1,27.9,88,56,30,30.22,30.01,11,1,12,0.00
2013-4-3,61.9,52.7,44.6,34.6,26.4,19.2,59,36,27,30.33,30.17,12,2,12,0.00
2013-4-4,46.9,41.7,37.5,38.2,34.2,24.7,95,77,44,30.34,30.02,12,2,17,0.82
2013-4-5,64.3,48.2,37.1,50.8,41.7,35.8,95,80,48,30.10,29.98,10,2,11,0.01
2013-4-6,67.5,53.4,35.2,43.9,38.5,33.3,95,61,34,30.29,30.10,11,1,12,0.00
2013-4-7,72.3,56.8,37.9,52.3,43.9,34.3,90,64,40,30.33,30.16,11,2,17,0.00
2013-4-8,78.0,66.1,52.2,58.7,53.9,50.2,94,67,44,30.23,30.11,11,2,13,0.00
2013-4-9,82.4,69.6,52.6,63.3,57.4,50.5,95,67,45,30.25,30.13,11,2,11,0.00
2013-4-10,84.7,73.4,59.4,64.3,59.6,55.8,93,64,44,30.17,30.00,11,2,14,0.00
2013-4-11,80.8,70.5,61.3,66.7,62.2,56.6,94,76,56,30.03,29.81,15,3,15,0.00
2013-4-12,81.1,70.8,56.7,67.8,58.8,41.4,95,70,28,29.87,29.67,18,4,18,0.37
2013-4-13,74.8,60.3,43.2,51.7,44.1,38.9,93,59,28,30.08,29.87,13,1,13,0.00
2013-4-14,75.7,60.8,43.3,54.8,46.9,41.0,94,64,35,30.15,30.04,11,2,12,0.00
2013-4-15,72.9,64.3,56.9,62.1,58.0,53.6,93,80,66,30.24,30.03,9,1,11,0.01
2013-4-16,77.3,66.3,56.2,65.7,59.7,54.8,96,81,57,30.34,30.23,8,1,8,0.00
2013-4-17,84.7,70.7,57.1,68.4,61.3,55.4,95,74,46,30.31,30.14,12,2,12,0.00
2013-4-18,79.7,70.4,62.5,64.6,61.4,59.2,92,74,54,30.21,30.04,15,3,16,0.00
2013-4-19,80.3,68.4,54.8,69.2,63.3,50.0,94,85,64,30.05,29.79,20,4,24,0.47
2013-4-20,64.0,53.5,42.4,51.3,39.8,32.1,92,63,33,30.32,29.94,13,2,13,0.00
2013-4-21,63.7,51.0,37.0,46.6,40.6,35.7,95,70,46,30.51,30.32,13,2,14,0.00
2013-4-22,63.7,51.2,38.9,41.4,36.4,29.8,87,61,29,30.48,30.28,13,2,16,0.00
2013-4-23,66.5,55.9,46.7,56.3,48.4,40.2,92,76,63,30.33,30.17,8,1,10,0.00
2013-4-24,76.2,62.5,51.2,61.7,54.7,49.5,96,78,52,30.22,30.06,15,2,17,0.00
2013-4-25,71.3,61.0,45.1,58.5,47.3,36.5,91,64,31,30.32,30.09,11,2,14,0.00
2013-4-26,72.2,58.3,39.7,49.0,40.8,34.1,91,55,31,30.49,30.31,10,1,12,0.00
2013-4-27,68.0,57.7,53.1,56.4,51.3,46.2,96,80,52,30.42,30.30,6,0,7,0.21
2013-4-28,60.9,56.4,54.1,59.5,55.2,52.8,97,96,92,30.31,30.12,9,1,10,1.73
2013-4-29,73.5,62.8,56.8,65.1,59.4,56.0,98,90,68,30.12,29.99,7,1,7,0.21
2013-4-30,72.0,62.6,55.6,64.2,59.4,53.9,98,90,70,30.21,30.03,10,1,10,0.00